Change the Weather History Date:

Tuesday, December 25, 2012

  Actual Average Record
Temperature  
Mean Temperature 31 °F -  
Max Temperature 34 °F 41 °F 62 °F (1971)
Min Temperature 28 °F 26 °F 0 °F (1983)
Degree Days  
Heating Degree Days 34    
Moisture  
Dew Point 30 °F    
Average Humidity 90    
Maximum Humidity 96    
Minimum Humidity 72    
Precipitation  
Precipitation 0.18 in - - ()
Sea Level Pressure  
Sea Level Pressure 29.89 in    
Wind  
Wind Speed 6 mph (NE)    
Max Wind Speed 12 mph    
Max Gust Speed -    
Visibility 6 miles    
Events Rain , Snow    
Averages and records for this station are not official NWS values.
T = Trace of Precipitation, MM = Missing Value Source: NWS Daily Summary

Daily Weather History Graph

Daily Weather History Graph

Search for Another Location

Airport or City:

Trip Planner

Search our weather history database for the weather conditions in past years. The results will help you decide how hot, cold, wet, or windy it might be!

Date:

Astronomy

Dec. 25, 2012 Rise Set
Actual Time 7:37 AM PST 4:17 PM PST
Civil Twilight 7:02 AM PST 4:52 PM PST
Nautical Twilight 6:24 AM PST 5:30 PM PST
Astronomical Twilight 5:48 AM PST 6:06 PM PST
Moon 2:31 PM PST (12/25) 5:11 AM PST (12/25)
Length of Visible Light 9h 49m
Length of Day
8h 40m
Waxing Gibbous, 94% of the Moon is Illuminated
Dec 25
Waxing Gibbous
Dec 28
Full
Jan 4
Last Quarter
Jan 11
New
Jan 18
First Quarter

Hourly Weather History & Observations

Time (PST) Temp. Windchill Dew Point Humidity Pressure Visibility Wind Dir Wind Speed Gust Speed Precip Events Conditions
12:53 AM 28.0 °F 24.2 °F 25.0 °F 88% 30.15 in 10.0 mi SE 3.5 mph - N/A   Clear
1:53 AM 28.0 °F 21.7 °F 24.1 °F 85% 30.09 in 10.0 mi East 5.8 mph - N/A   Clear
2:53 AM 28.0 °F 24.2 °F 24.1 °F 85% 30.09 in 10.0 mi Variable 3.5 mph - N/A   Clear
3:53 AM 30.9 °F 23.5 °F 24.1 °F 76% 30.06 in 10.0 mi ESE 8.1 mph - N/A   Clear
4:53 AM 30.9 °F 23.5 °F 25.0 °F 79% 30.03 in 10.0 mi East 8.1 mph - N/A   Clear
5:53 AM 32.0 °F 26.4 °F 25.0 °F 75% 30.00 in 10.0 mi East 5.8 mph - N/A   Partly Cloudy
6:53 AM 33.1 °F 30.0 °F 25.0 °F 72% 29.98 in 10.0 mi East 3.5 mph - N/A   Scattered Clouds
7:53 AM 30.0 °F 25.2 °F 27.0 °F 88% 29.97 in 10.0 mi West 4.6 mph - N/A   Overcast
8:53 AM 30.9 °F 26.2 °F 28.0 °F 89% 29.97 in 10.0 mi South 4.6 mph - N/A   Overcast
9:53 AM 32.0 °F 27.5 °F 30.0 °F 92% 29.97 in 4.0 mi SW 4.6 mph - 0.00 in   Overcast
10:13 AM 33.8 °F - 30.2 °F 87% 29.95 in 2.5 mi Calm Calm - 0.01 in Snow Light Snow
10:40 AM 33.8 °F - 30.2 °F 87% 29.93 in 4.0 mi Calm Calm - 0.03 in Rain Light Rain
10:49 AM 32.0 °F 28.7 °F 30.2 °F 93% 29.92 in 1.5 mi North 3.5 mph - 0.03 in Snow Light Snow
10:53 AM 32.0 °F 25.6 °F 30.9 °F 96% 29.94 in 1.0 mi NE 6.9 mph - 0.03 in Snow Light Snow
11:02 AM 32.0 °F 25.6 °F 30.2 °F 93% 29.91 in 0.8 mi ENE 6.9 mph - 0.00 in Snow Light Snow
11:27 AM 32.0 °F 24.8 °F 30.2 °F 93% 29.89 in 1.0 mi NE 8.1 mph - 0.01 in Snow Light Snow
11:53 AM 32.0 °F 24.2 °F 30.9 °F 96% 29.88 in 2.0 mi NE 9.2 mph - 0.02 in Snow Light Snow
11:59 AM 33.8 °F 25.3 °F 30.2 °F 87% 29.86 in 1.8 mi NE 11.5 mph - 0.00 in Snow Light Snow
12:07 PM 33.8 °F 25.3 °F 30.2 °F 87% 29.86 in 3.0 mi NE 11.5 mph - 0.00 in Snow Light Snow
12:53 PM 33.1 °F 24.9 °F 30.9 °F 92% 29.86 in 6.0 mi NNE 10.4 mph - 0.00 in Rain Light Rain
1:11 PM 33.8 °F 25.3 °F 30.2 °F 87% 29.85 in 5.0 mi NE 11.5 mph - 0.00 in Rain Light Rain
1:44 PM 33.8 °F 26.4 °F 30.2 °F 87% 29.83 in 2.5 mi NNE 9.2 mph - 0.02 in Snow Light Snow
1:53 PM 33.1 °F 25.5 °F 30.9 °F 92% 29.85 in 2.5 mi NNE 9.2 mph - 0.02 in Snow Light Snow
2:02 PM 33.8 °F 27.0 °F 30.2 °F 87% 29.83 in 3.0 mi NNE 8.1 mph - 0.00 in Snow Light Snow
2:29 PM 33.8 °F 27.0 °F 30.2 °F 87% 29.83 in 6.0 mi NNE 8.1 mph - 0.01 in Rain Light Rain
2:53 PM 33.1 °F 26.9 °F 32.0 °F 96% 29.84 in 5.0 mi NE 6.9 mph - 0.01 in Rain Light Rain
3:01 PM 33.8 °F 28.6 °F 32.0 °F 93% 29.82 in 4.0 mi NNE 5.8 mph - 0.00 in Rain Light Rain
3:29 PM 33.8 °F 28.6 °F 32.0 °F 93% 29.83 in 4.0 mi North 5.8 mph - 0.02 in Rain Light Rain
3:53 PM 33.1 °F 28.7 °F 32.0 °F 96% 29.84 in 3.0 mi NNE 4.6 mph - 0.03 in Rain Light Rain
4:53 PM 33.1 °F 26.9 °F 32.0 °F 96% 29.83 in 7.0 mi NE 6.9 mph - 0.03 in Rain Light Rain
5:02 PM 33.8 °F 27.7 °F 32.0 °F 93% 29.82 in 7.0 mi NE 6.9 mph - 0.01 in Rain Light Rain
5:53 PM 33.1 °F 26.9 °F 32.0 °F 96% 29.83 in 8.0 mi NNE 6.9 mph - 0.02 in Rain Light Rain
6:53 PM 33.1 °F 26.1 °F 32.0 °F 96% 29.82 in 7.0 mi NNE 8.1 mph - 0.01 in Rain Light Rain
7:53 PM 33.1 °F 25.5 °F 32.0 °F 96% 29.81 in 10.0 mi NE 9.2 mph - 0.01 in Rain Light Rain
8:53 PM 33.1 °F 26.1 °F 32.0 °F 96% 29.81 in 10.0 mi NNE 8.1 mph - 0.00 in   Overcast
9:25 PM 33.8 °F 27.7 °F 32.0 °F 93% 29.79 in 10.0 mi NNE 6.9 mph - N/A   Overcast
9:53 PM 34.0 °F 28.0 °F 32.0 °F 92% 29.81 in 10.0 mi NNE 6.9 mph - N/A   Overcast
10:01 PM 33.8 °F 27.0 °F 32.0 °F 93% 29.80 in 10.0 mi NNE 8.1 mph - N/A   Overcast
10:53 PM 34.0 °F 28.0 °F 32.0 °F 92% 29.82 in 10.0 mi NNE 6.9 mph - N/A   Overcast
11:45 PM 33.8 °F - 30.2 °F 87% 29.80 in 10.0 mi Calm Calm - N/A   Overcast
11:53 PM 33.1 °F - 30.9 °F 92% 29.82 in 10.0 mi Calm Calm - N/A   Overcast